Weather History for Fort Bragg, NC

Change the Weather History Date:

Sunday, November 4, 2012

  Actual Average Record
Temperature  
Mean Temperature 52 °F -  
Max Temperature 61 °F 65 °F 82 °F (2003)
Min Temperature 42 °F 45 °F 30 °F (1996)
Degree Days  
Heating Degree Days 14    
Growing Degree Days 2 (Base 50)    
Moisture  
Dew Point 40 °F    
Average Humidity 69    
Maximum Humidity 89    
Minimum Humidity 52    
Precipitation  
Precipitation 0.02 in - - ()
Sea Level Pressure  
Sea Level Pressure 30.01 in    
Wind  
Wind Speed 4 mph (NE)    
Max Wind Speed 8 mph    
Max Gust Speed -    
Visibility 10 miles    
Events Rain    
Averages and records for this station are not official NWS values.
T = Trace of Precipitation, MM = Missing Value Source: NWS Daily Summary

Daily Weather History Graph

Daily Weather History Graph

Search for Another Location

Airport:

Trip Planner

Search our weather history database for the weather conditions in past years. The results will help you decide how hot, cold, wet, or windy it might be!

Date:

Astronomy

Nov. 04, 2012 Rise Set
Actual Time 6:40 AM EST 5:17 PM EST
Civil Twilight 6:13 AM EST 5:44 PM EST
Nautical Twilight 5:43 AM EST 6:14 PM EST
Astronomical Twilight 5:13 AM EST 6:44 PM EST
Moon 9:56 PM EST (11/4) 11:20 AM EST (11/4)
Length of Visible Light 11h 30m
Length of Day
10h 37m
Waning Gibbous, 72% of the Moon is Illuminated
Nov 4
Waning Gibbous
Nov 6
Last Quarter
Nov 13
New
Nov 20
First Quarter
Nov 28
Full

Hourly Weather History & Observations

Time (EST) Temp. Windchill Dew Point Humidity Pressure Visibility Wind Dir Wind Speed Gust Speed Precip Events Conditions
12:55 AM 42.4 °F 40.7 °F 37.2 °F 82% 30.06 in 10.0 mi East 3.5 mph - N/A   Clear
1:55 AM 46.0 °F 44.8 °F 37.4 °F 72% 30.08 in 10.0 mi East 3.5 mph - N/A   Mostly Cloudy
1:55 AM 44.6 °F 43.1 °F 36.1 °F 72% 30.06 in 10.0 mi East 3.5 mph - N/A   Partly Cloudy
2:55 AM 43.3 °F - 36.3 °F 76% 30.03 in 10.0 mi Calm Calm - N/A   Clear
3:55 AM 42.6 °F - 36.9 °F 80% 30.03 in 10.0 mi Calm Calm - N/A   Partly Cloudy
4:55 AM 43.5 °F 40.9 °F 36.1 °F 75% 30.01 in 10.0 mi East 4.6 mph - N/A   Partly Cloudy
5:55 AM 42.8 °F 40.1 °F 36.1 °F 77% 30.01 in 10.0 mi ENE 4.6 mph - N/A   Clear
6:55 AM 43.5 °F 41.9 °F 36.0 °F 75% 30.01 in 10.0 mi ENE 3.5 mph - N/A   Partly Cloudy
7:55 AM 46.9 °F - 36.0 °F 66% 30.01 in 10.0 mi NE 8.1 mph - N/A   Scattered Clouds
8:55 AM 49.5 °F - 37.6 °F 64% 30.02 in 10.0 mi NE 5.8 mph - N/A   Mostly Cloudy
9:55 AM 52.2 °F - 39.0 °F 61% 30.01 in 10.0 mi NNE 6.9 mph - N/A   Overcast
10:55 AM 55.4 °F - 40.6 °F 58% 29.99 in 10.0 mi NE 6.9 mph - N/A   Overcast
11:55 AM 57.9 °F - 42.8 °F 57% 29.99 in 10.0 mi NNE 5.8 mph - N/A   Scattered Clouds
12:55 PM 61.2 °F - 43.2 °F 52% 29.97 in 10.0 mi Variable 4.6 mph - N/A   Clear
1:55 PM 61.2 °F - 43.5 °F 52% 29.96 in 10.0 mi North 8.1 mph - N/A   Mostly Cloudy
2:55 PM 60.8 °F - 43.3 °F 53% 29.96 in 10.0 mi NNE 3.5 mph - N/A   Scattered Clouds
3:55 PM 58.8 °F - 43.3 °F 56% 29.97 in 10.0 mi NNE 5.8 mph - N/A   Mostly Cloudy
4:55 PM 56.7 °F - 43.7 °F 62% 29.98 in 10.0 mi NE 5.8 mph - N/A   Scattered Clouds
5:55 PM 54.1 °F - 43.5 °F 67% 29.97 in 10.0 mi North 4.6 mph - N/A   Partly Cloudy
6:55 PM 52.7 °F - 42.6 °F 69% 29.99 in 10.0 mi NE 8.1 mph - N/A   Mostly Cloudy
7:55 PM 52.0 °F - 41.7 °F 68% 29.98 in 10.0 mi NE 6.9 mph - N/A   Mostly Cloudy
8:35 PM 51.8 °F - 41.0 °F 67% 30.01 in 10.0 mi North 6.9 mph - N/A Rain Light Rain
8:55 PM 50.7 °F - 42.1 °F 72% 30.02 in 10.0 mi NE 3.5 mph - 0.00 in Rain Light Rain
9:35 PM 48.2 °F - 44.6 °F 87% 30.02 in 10.0 mi NE 4.6 mph - N/A   Overcast
9:55 PM 48.2 °F - 45.0 °F 89% 30.01 in 10.0 mi NE 3.5 mph - 0.02 in   Overcast
10:55 PM 48.2 °F - 43.9 °F 85% 30.01 in 10.0 mi Calm Calm - N/A   Overcast